Celebrity Century — 9HJI9 — position and weather

sailwx.info

Track history (hours):
 
Tides and Currents Weather Stations Pressure Air Temp Water Temp Dewpoint Dewpoint Depression Visibility Wind Speed Wind Dir Waves Ship Positions

Celebrity Century

Last reported at 2017-Jun-24 09:57 UTC. Time now 2017-Jun-29 01:54 UTC.
Position N 24°28' E 119°08'.

; draft 8 m.

Type: Passenger vessel. MMSI: 249054000.

Date/timePositionNaut miles runAvg speedWind from/ knotsBaromVisibWave heightAir tempDewpointWater temp
2017-Jun-24 09:57N 24°28' E 119°08'919.8
2017-Jun-24 09:30N 24°23' E 118°60'1019.5
2017-Jun-24 09:01N 24°19' E 118°50'1119.1
2017-Jun-24 08:27N 24°17' E 118°39'918.9
2017-Jun-24 08:00N 24°14' E 118°30'918.6
2017-Jun-24 07:30N 24°13' E 118°20'714.3
2017-Jun-24 07:00N 24°17' E 118°13'815.6
2017-Jun-24 06:30N 24°23' E 118°08'612.8
2017-Jun-24 06:00N 24°28' E 118°03'2 4.2
2017-Jun-24 05:30N 24°29' E 118°04'0 0.0
2017-Jun-24 05:00N 24°29' E 118°04'0 0.0
2017-Jun-24 04:22N 24°29' E 118°04'0 0.0
2017-Jun-24 03:58N 24°29' E 118°04'0 0.0
2017-Jun-24 03:28N 24°29' E 118°04'0 0.0
2017-Jun-24 02:58N 24°29' E 118°04'0 0.0
2017-Jun-24 02:22N 24°29' E 118°04'0 0.0
2017-Jun-24 01:58N 24°29' E 118°04'0 0.0
2017-Jun-24 01:28N 24°29' E 118°04'0 0.0
2017-Jun-24 00:58N 24°29' E 118°04'0 0.0
2017-Jun-24 00:16N 24°29' E 118°04'0 0.0
2017-Jun-23 23:52N 24°29' E 118°04'0 0.0
2017-Jun-23 23:28N 24°29' E 118°04'0 0.0
2017-Jun-23 22:58N 24°29' E 118°04'0 0.0
2017-Jun-23 22:30N 24°29' E 118°04'2 4.3
2017-Jun-23 22:00N 24°27' E 118°03'510.6
2017-Jun-23 21:30N 24°24' E 118°07'611.3
2017-Jun-23 21:00N 24°19' E 118°11'510.6
2017-Jun-23 20:31N 24°15' E 118°15'611.0
2017-Jun-23 20:00N 24°13' E 118°21'815.7
2017-Jun-23 19:30N 24°14' E 118°29'915.8
2017-Jun-23 18:57N 24°16' E 118°38'816.0
2017-Jun-23 18:26N 24°19' E 118°47'  
2017-Jun-20 15:26N 24°20' E 118°54'1216.5
2017-Jun-20 14:43N 24°17' E 118°41'1216.4
2017-Jun-20 13:59N 24°13' E 118°29'510.7
2017-Jun-20 13:30N 24°11' E 118°23'510.0
2017-Jun-20 13:00N 24°13' E 118°18'510.8
2017-Jun-20 12:31N 24°16' E 118°14'611.0
2017-Jun-20 12:01N 24°21' E 118°10'5 9.9
2017-Jun-20 11:31N 24°24' E 118°06'4 8.9
2017-Jun-20 11:00N 24°27' E 118°03'2 1.5
2017-Jun-20 09:39N 24°29' E 118°04'0 0.0
2017-Jun-20 09:21N 24°29' E 118°04'0 0.0
2017-Jun-20 08:57N 24°29' E 118°04'0 0.0
2017-Jun-20 08:21N 24°29' E 118°04'0 0.0
2017-Jun-20 06:21N 24°29' E 118°04'0 0.0
2017-Jun-20 05:51N 24°29' E 118°04'0 0.0
2017-Jun-20 05:27N 24°29' E 118°04'0 0.0
2017-Jun-20 04:51N 24°29' E 118°04'0 0.0
2017-Jun-20 04:21N 24°29' E 118°04'0 0.0
2017-Jun-20 00:36N 24°29' E 118°04'0 0.0
2017-Jun-20 00:30N 24°29' E 118°04'0 0.0
2017-Jun-20 00:00N 24°29' E 118°04'0 0.0
2017-Jun-19 23:30N 24°29' E 118°04'1 1.6
2017-Jun-19 23:00N 24°29' E 118°03'5 9.4
2017-Jun-19 22:30N 24°24' E 118°06'612.4
2017-Jun-19 22:00N 24°20' E 118°10'612.5
2017-Jun-19 21:30N 24°15' E 118°15'5 9.7
2017-Jun-19 21:00N 24°13' E 118°20'611.0
2017-Jun-19 20:30N 24°14' E 118°26'510.5
2017-Jun-19 20:00N 24°14' E 118°32'510.5
2017-Jun-19 19:30N 24°16' E 118°37'910.5
2017-Jun-19 18:36N 24°18' E 118°47'110.7
2017-Jun-19 18:30N 24°19' E 118°48'910.4
2017-Jun-19 17:36N 24°22' E 118°58'110.2
2017-Jun-19 17:27N 24°22' E 118°60'  
2017-Jun-16 13:30N 24°19' E 118°51'1312.4
2017-Jun-16 12:28N 24°16' E 118°37'612.9
2017-Jun-16 11:59N 24°15' E 118°30'612.7
2017-Jun-16 11:30N 24°13' E 118°24'611.9
2017-Jun-16 11:00N 24°13' E 118°17'612.6
2017-Jun-16 10:30N 24°18' E 118°13'713.8
2017-Jun-16 10:00N 24°23' E 118°07'612.1
2017-Jun-16 09:30N 24°27' E 118°03'2 0.3
2017-Jun-16 00:26N 24°29' E 118°04'0 0.0
2017-Jun-15 23:56N 24°29' E 118°04'0 0.3
2017-Jun-15 23:30N 24°29' E 118°04'4 7.8
2017-Jun-15 23:00N 24°25' E 118°04'5 9.2
2017-Jun-15 22:31N 24°22' E 118°08'611.5
2017-Jun-15 22:00N 24°18' E 118°12'612.4
2017-Jun-15 21:30N 24°13' E 118°17'4 8.7
2017-Jun-15 21:00N 24°12' E 118°21'611.8
2017-Jun-15 20:30N 24°12' E 118°28'1911.7
2017-Jun-15 18:55N 24°19' E 118°47'  
Track history (hours):
 
Tides and Currents Weather Stations Pressure Air Temp Water Temp Dewpoint Dewpoint Depression Visibility Wind Speed Wind Dir Waves Ship Positions

Celebrity Century

Last reported at 2017-Jun-24 09:57 UTC. Time now 2017-Jun-29 01:54 UTC.
Position N 24°28' E 119°08'.

; draft 8 m.

Type: Passenger vessel. MMSI: 249054000.

Date/timePositionNaut miles runAvg speedWind from/ knotsBaromVisibWave heightAir tempDewpointWater temp
2017-Jun-24 09:57N 24°28' E 119°08'919.8
2017-Jun-24 09:30N 24°23' E 118°60'1019.5
2017-Jun-24 09:01N 24°19' E 118°50'1119.1
2017-Jun-24 08:27N 24°17' E 118°39'918.9
2017-Jun-24 08:00N 24°14' E 118°30'918.6
2017-Jun-24 07:30N 24°13' E 118°20'714.3
2017-Jun-24 07:00N 24°17' E 118°13'815.6
2017-Jun-24 06:30N 24°23' E 118°08'612.8
2017-Jun-24 06:00N 24°28' E 118°03'2 4.2
2017-Jun-24 05:30N 24°29' E 118°04'0 0.0
2017-Jun-24 05:00N 24°29' E 118°04'0 0.0
2017-Jun-24 04:22N 24°29' E 118°04'0 0.0
2017-Jun-24 03:58N 24°29' E 118°04'0 0.0
2017-Jun-24 03:28N 24°29' E 118°04'0 0.0
2017-Jun-24 02:58N 24°29' E 118°04'0 0.0
2017-Jun-24 02:22N 24°29' E 118°04'0 0.0
2017-Jun-24 01:58N 24°29' E 118°04'0 0.0
2017-Jun-24 01:28N 24°29' E 118°04'0 0.0
2017-Jun-24 00:58N 24°29' E 118°04'0 0.0
2017-Jun-24 00:16N 24°29' E 118°04'0 0.0
2017-Jun-23 23:52N 24°29' E 118°04'0 0.0
2017-Jun-23 23:28N 24°29' E 118°04'0 0.0
2017-Jun-23 22:58N 24°29' E 118°04'0 0.0
2017-Jun-23 22:30N 24°29' E 118°04'2 4.3
2017-Jun-23 22:00N 24°27' E 118°03'510.6
2017-Jun-23 21:30N 24°24' E 118°07'611.3
2017-Jun-23 21:00N 24°19' E 118°11'510.6
2017-Jun-23 20:31N 24°15' E 118°15'611.0
2017-Jun-23 20:00N 24°13' E 118°21'815.7
2017-Jun-23 19:30N 24°14' E 118°29'915.8
2017-Jun-23 18:57N 24°16' E 118°38'816.0
2017-Jun-23 18:26N 24°19' E 118°47'  
2017-Jun-20 15:26N 24°20' E 118°54'1216.5
2017-Jun-20 14:43N 24°17' E 118°41'1216.4
2017-Jun-20 13:59N 24°13' E 118°29'510.7
2017-Jun-20 13:30N 24°11' E 118°23'510.0
2017-Jun-20 13:00N 24°13' E 118°18'510.8
2017-Jun-20 12:31N 24°16' E 118°14'611.0
2017-Jun-20 12:01N 24°21' E 118°10'5 9.9
2017-Jun-20 11:31N 24°24' E 118°06'4 8.9
2017-Jun-20 11:00N 24°27' E 118°03'2 1.5
2017-Jun-20 09:39N 24°29' E 118°04'0 0.0
2017-Jun-20 09:21N 24°29' E 118°04'0 0.0
2017-Jun-20 08:57N 24°29' E 118°04'0 0.0
2017-Jun-20 08:21N 24°29' E 118°04'0 0.0
2017-Jun-20 06:21N 24°29' E 118°04'0 0.0
2017-Jun-20 05:51N 24°29' E 118°04'0 0.0
2017-Jun-20 05:27N 24°29' E 118°04'0 0.0
2017-Jun-20 04:51N 24°29' E 118°04'0 0.0
2017-Jun-20 04:21N 24°29' E 118°04'0 0.0
2017-Jun-20 00:36N 24°29' E 118°04'0 0.0
2017-Jun-20 00:30N 24°29' E 118°04'0 0.0
2017-Jun-20 00:00N 24°29' E 118°04'0 0.0
2017-Jun-19 23:30N 24°29' E 118°04'1 1.6
2017-Jun-19 23:00N 24°29' E 118°03'5 9.4
2017-Jun-19 22:30N 24°24' E 118°06'612.4
2017-Jun-19 22:00N 24°20' E 118°10'612.5
2017-Jun-19 21:30N 24°15' E 118°15'5 9.7
2017-Jun-19 21:00N 24°13' E 118°20'611.0
2017-Jun-19 20:30N 24°14' E 118°26'510.5
2017-Jun-19 20:00N 24°14' E 118°32'510.5
2017-Jun-19 19:30N 24°16' E 118°37'910.5
2017-Jun-19 18:36N 24°18' E 118°47'110.7
2017-Jun-19 18:30N 24°19' E 118°48'910.4
2017-Jun-19 17:36N 24°22' E 118°58'110.2
2017-Jun-19 17:27N 24°22' E 118°60'  
2017-Jun-16 13:30N 24°19' E 118°51'1312.4
2017-Jun-16 12:28N 24°16' E 118°37'612.9
2017-Jun-16 11:59N 24°15' E 118°30'612.7
2017-Jun-16 11:30N 24°13' E 118°24'611.9
2017-Jun-16 11:00N 24°13' E 118°17'612.6
2017-Jun-16 10:30N 24°18' E 118°13'713.8
2017-Jun-16 10:00N 24°23' E 118°07'612.1
2017-Jun-16 09:30N 24°27' E 118°03'2 0.3
2017-Jun-16 00:26N 24°29' E 118°04'0 0.0
2017-Jun-15 23:56N 24°29' E 118°04'0 0.3
2017-Jun-15 23:30N 24°29' E 118°04'4 7.8
2017-Jun-15 23:00N 24°25' E 118°04'5 9.2
2017-Jun-15 22:31N 24°22' E 118°08'611.5
2017-Jun-15 22:00N 24°18' E 118°12'612.4
2017-Jun-15 21:30N 24°13' E 118°17'4 8.7
2017-Jun-15 21:00N 24°12' E 118°21'611.8
2017-Jun-15 20:30N 24°12' E 118°28'1911.7
2017-Jun-15 18:55N 24°19' E 118°47'  

Dump ship's entire track history